Location: ?????????
(38.5999°N, 22.7695°E)
Time: 09:44:48
(UTC+00:00)

BREEZE-M R/B - Pass Details

Date: 23 May 2024
Orbit: 667 x 26488 km, 48.9° (Epoch: 15 June)

Event Time Altitude Azimuth Distance (km) Brightness Sun altitude
Exits shadow 00:57:43 31° 255° (WSW) 1,576 4.2 -20.9°
Maximum altitude 01:00:18 73° 334° (NNW) 1,292 4.1 -20.6°
Drops below altitude 10° 01:16:13 10° 60° (ENE) 7,604 9.2 -18.6°
Sets 01:28:42 0° 63° (ENE) 11,971 10.5 -16.9°
